RH
91 66 83 89 69 85 87 96 84 74 50 40 38 35 29 24 59 94 96 96 97 96 96 96 96 94 96 97 98 87 53 33 8 4 5 8 7 56 31 7 7 7 9
99 82 98 95 82 81 81 92 83 74 53 37 34 49 51 33 29 79 68 96 96 96 96 95 96 94 96 96 100 83 51 45 9 5 6 15 8 15 10 10 9 8 9
100 88 100 92 98 82 79 84 77 74 54 53 50 51 44 56 40 45 84 95 97 97 96 96 95 94 96 99 100 93 61 52 15 6 8 9 8 12 15 17 12 38 12
96 100 95 98 93 76 69 78 81 78 58 48 56 62 73 73 52 62 94 97 96 96 96 95 97 95 96 99 100 97 68 57 29 26 8 9 12 11 17 14 24 60 34
100 99 94 96 97 89 76 72 71 81 55 54 49 45 72 79 66 64 82 94 95 95 96 97 96 96 96 94 93 84 60 53 46 42 26 39 46 8 16 11 14 53 23
99 97 100 90 99 90 78 72 78 73 62 64 51 27 27 28 50 59 78 74 80 95 97 96 96 97 97 91 96 90 80 55 50 42 41 71 72 44 45 39 13 15 14
95 99 100 98 100 98 95 80 81 76 74 68 63 35 29 31 25 41 66 71 79 94 91 95 96 96 97 97 92 88 92 68 49 42 37 54 58 75 89 18 15 18 18
100 96 99 100 96 95 94 79 87 81 71 65 65 56 41 41 50 56 41 74 75 95 90 97 97 94 97 95 94 93 85 74 59 46 50 56 52 48 63 30 28 22 23
99 100 96 99 94 97 88 92 93 80 74 68 67 63 52 55 65 54 94 46 83 93 96 94 96 96 96 95 94 94 95 89 80 62 72 86 42 38 60 33 45 41 28
99 98 100 100 100 85 92 99 83 81 66 67 67 57 67 54 60 53 59 72 84 81 80 83 81 94 95 96 96 96 96 93 89 88 95 96 69 46 84 84 94 71 56
100 100 100 100 96 92 98 86 86 91 78 68 67 58 52 59 73 73 62 45 76 83 71 81 94 94 96 96 96 96 96 95 94 93 97 96 84 65 82 89 92 89 59
94 100 100 100 99 96 91 97 95 82 73 67 61 50 60 94 98 98 88 66 43 62 82 92 87 77 95 85 91 95 94 96 96 99 97 97 96 96 93 96 97 89 86
92 100 98 98 86 93 98 98 95 89 78 70 76 83 72 95 97 98 97 88 79 55 71 86 72 80 79 80 94 95 96 96 95 95 96 96 98 95 98 97 97 97 90
99 99 99 99 100 92 99 99 99 100 98 90 98 98 100 100 99 96 97 98 100 76 69 73 75 76 80 86 98 96 95 94 92 97 97 91 94 96 98 96 97 98 84
98 99 98 98 99 100 98 98 98 99 100 98 98 98 98 97 97 95 96 98 98 99 92 86 89 86 90 93 94 94 96 98 97 96 94 96 97 96 96 97 98 98 90
83 97 98 99 100 100 100 98 98 96 99 98 98 98 98 98 97 94 93 97 100 97 97 100 93 81 73 82 82 95 97 96 94 92 96 96 96 100 98 98 100 100 93
34 76 100 97 99 98 99 100 98 98 98 96 98 99 97 96 94 91 86 90 95 97 97 97 99 98 94 96 87 98 97 94 92 97 96 96 98 100 95 100 99 100 99
50 87 97 99 98 98 98 99 98 100 98 97 98 100 96 95 90 90 77 66 79 94 96 97 97 96 97 99 100 97 96 93 95 97 95 96 98 100 99 98 98 97 86
99 100 100 99 100 100 99 98 99 98 98 100 99 99 98 97 95 92 74 63 73 70 90 96 96 98 97 98 96 97 89 93 91 96 98 98 97 93 91 96 98 100 100
100 100 95 100 97 100 100 99 98 97 98 98 99 98 100 100 95 87 76 67 71 73 72 83 95 98 98 96 98 98 97 97 98 99 100 95 98 97 97 96 100 100 97
100 100 100 90 100 98 100 100 98 98 100 99 99 98 99 98 96 100 93 74 71 71 70 67 81 89 86 85 95 97 97 98 97 99 98 97 95 93 97 98 95 97 98
93 98 100 100 100 100 98 98 98 98 99 97 100 100 100 98 100 96 91 88 86 70 63 63 63 70 75 76 81 82 93 98 97 97 96 98 96 90 85 81 94 93 94
76 89 100 100 100 100 100 100 100 100 100 99 99 98 99 98 98 99 100 100 97 87 68 62 60 56 51 45 59 83 91 92 89 87 95 95 95 96 96 98 96 89 88
100 99 86 88 100 100 100 92 99 100 100 98 99 99 99 98 100 100 100 100 99 93 81 72 67 61 56 50 44 42 38 47 67 74 72 75 75 75 76 82 88 91 93
100 100 100 100 81 87 84 90 100 100 99 100 100 100 99 99 100 97 98 99 99 97 83 84 75 71 60 53 55 54 46 40 54 71 68 71 76 84 89 85 82 86 82
100 100 98 99 100 100 100 100 100 100 100 99 99 100 100 99 100 100 98 100 99 99 96 84 85 80 70 63 72 75 62 50 40 44 50 64 78 77 75 73 70 65 65
Wind_Speed
66 76 74 74 79 78 80 69 74 74 70 69 65 65 66 66 70 72 62 54 57 50 56 55 61 57 61 55 54 51 43 43 40 38 35 28 30 31 33 26 24 23 20
70 74 74 74 77 76 78 72 73 72 68 67 65 63 63 67 69 71 70 46 56 56 58 61 60 48 60 47 52 52 42 40 39 39 38 33 34 28 34 30 24 23 23
49 67 68 73 73 76 72 72 71 69 67 63 63 62 66 65 67 69 67 61 52 59 58 58 59 58 49 49 54 53 43 40 40 40 40 34 34 32 36 30 25 25 25
74 55 51 70 73 75 70 70 67 66 67 66 62 58 60 61 65 69 74 66 55 57 53 59 58 56 46 49 55 56 47 45 44 45 41 38 37 36 36 31 29 27 31
66 39 68 62 70 66 67 69 68 65 67 65 66 65 60 60 64 73 74 75 63 58 55 58 62 57 48 48 53 51 49 48 47 47 44 43 43 41 36 33 36 33 34
57 60 46 70 61 65 65 67 69 66 65 65 63 68 64 60 62 71 75 75 77 72 51 62 59 59 55 52 52 54 54 50 51 51 49 48 47 47 44 41 39 36 36
66 48 56 64 68 70 53 68 69 66 64 63 61 65 66 59 53 65 73 75 78 60 60 61 51 60 61 54 51 52 56 53 52 51 49 49 48 52 48 44 41 39 38
61 61 53 57 63 66 68 67 67 67 63 61 60 60 60 55 49 47 65 70 75 62 64 55 57 54 56 59 54 54 57 56 55 54 53 50 51 51 50 47 45 44 41
63 63 57 51 69 60 68 59 65 65 62 61 60 55 55 56 55 52 55 64 69 76 65 71 62 56 62 61 62 60 59 59 59 59 57 55 53 54 54 51 49 47 44
66 63 60 63 69 63 63 52 68 64 63 60 59 55 49 48 49 51 63 56 64 68 73 70 71 68 58 56 58 57 61 59 61 60 58 58 53 53 56 56 54 52 49
66 60 60 69 67 75 57 66 57 64 60 62 56 53 52 48 51 49 53 57 67 59 61 71 71 68 53 58 64 67 63 64 63 58 60 60 57 57 58 56 59 52 51
71 65 63 60 71 75 67 70 73 62 58 59 56 54 50 45 48 54 52 53 65 64 53 69 67 65 52 48 49 59 58 63 61 64 65 67 58 61 61 60 60 56 58
67 71 67 66 76 70 54 65 62 58 56 56 52 53 53 54 51 56 57 55 59 60 57 52 51 65 48 50 53 58 55 55 55 62 69 65 56 59 60 57 56 60 51
67 76 70 66 64 79 62 57 65 57 53 53 54 54 52 53 54 51 49 44 52 55 54 52 52 49 48 51 57 58 60 54 48 54 55 49 48 55 56 54 53 56 50
64 75 75 67 68 83 70 60 68 58 56 54 57 55 52 51 51 48 49 36 49 48 53 51 48 46 41 45 53 46 42 42 49 49 45 47 49 48 50 51 54 56 52
71 72 72 74 50 64 78 58 59 58 65 52 52 53 52 49 43 38 37 31 40 47 48 47 43 40 42 40 46 48 44 44 41 43 44 43 42 44 44 47 52 56 55
61 69 62 72 63 67 61 71 65 64 62 60 56 57 54 46 43 40 36 35 33 32 40 43 45 46 45 44 45 45 49 46 42 41 42 38 39 38 42 48 48 55 56
50 58 56 62 50 48 61 66 63 63 62 62 54 60 57 46 41 41 39 38 35 31 28 36 41 45 49 41 42 47 47 45 44 40 36 39 40 42 42 44 49 54 58
56 55 56 52 46 43 44 61 61 59 55 60 55 59 57 50 45 46 43 41 38 36 35 32 30 35 46 51 52 50 48 43 43 39 43 39 39 41 41 43 45 49 54
62 63 60 57 63 49 40 49 63 59 57 61 63 62 58 56 49 49 49 45 44 44 41 38 38 40 39 48 42 48 51 46 48 48 47 44 38 38 39 39 41 45 47
55 62 64 62 63 61 45 43 48 55 49 51 59 62 61 59 56 49 48 47 47 47 44 42 42 36 36 34 34 42 50 55 52 49 50 46 46 45 42 42 42 45 46
52 58 66 61 65 62 59 51 50 44 48 49 59 67 66 62 65 62 55 53 52 50 48 46 43 42 40 38 38 36 36 49 50 47 46 43 46 46 46 45 44 46 48
60 61 57 62 63 55 55 51 56 55 50 53 59 59 61 65 64 65 61 56 59 56 51 49 46 44 43 42 42 42 42 41 42 45 49 48 48 49 49 48 51 51 50
55 63 64 65 57 61 64 63 59 61 60 58 58 56 60 64 61 66 68 62 60 59 54 51 51 50 48 45 41 39 40 42 44 45 45 45 45 44 44 43 45 46 46
45 57 67 65 72 71 69 67 63 55 62 63 62 59 61 61 64 64 69 65 61 61 55 53 54 53 51 47 43 41 42 45 46 46 46 45 44 44 44 44 45 45 46
44 46 58 64 66 67 70 70 65 61 58 59 59 66 65 66 72 69 68 66 65 65 56 54 57 57 55 51 49 49 49 49 48 48 47 46 45 48 50 49 49 48 49
Wind_Direction
213 215 216 215 213 214 219 211 215 217 216 217 218 219 220 219 214 218 227 221 226 220 227 226 229 224 223 232 231 214 222 228 227 230 232 235 242 234 258 258 262 264 263
200 209 215 214 216 214 217 216 214 216 215 217 218 221 223 223 220 217 222 217 216 222 227 227 230 227 228 227 224 214 223 226 227 229 231 230 238 238 249 253 256 266 268
192 207 212 215 215 215 215 217 216 216 214 217 218 221 222 220 218 214 209 216 224 217 224 225 229 232 223 224 218 217 224 225 226 228 232 232 239 240 247 249 254 265 271
201 210 202 217 213 216 215 216 218 219 216 217 217 217 219 223 220 214 216 219 221 220 228 223 217 230 219 224 220 220 222 223 224 227 229 229 234 241 245 250 253 254 260
198 189 212 209 214 210 216 216 217 219 218 218 219 221 219 221 220 218 220 224 220 228 228 225 224 229 219 222 220 218 222 223 225 229 228 231 235 243 243 251 252 254 252
185 189 208 204 205 209 213 215 217 217 217 218 221 223 225 227 227 222 222 224 226 224 224 215 221 220 220 218 220 224 224 225 227 229 232 237 232 234 242 249 251 251 253
194 216 192 196 205 206 203 216 216 216 217 218 222 224 226 228 231 227 224 226 226 229 226 227 230 225 227 222 226 227 225 227 231 232 234 238 238 247 248 246 250 253 255
204 208 191 197 202 203 203 212 210 214 216 217 220 224 226 230 234 232 229 225 225 227 225 222 226 228 226 226 225 226 226 229 232 232 233 237 240 243 245 243 247 252 256
207 200 199 196 199 198 200 206 211 212 213 216 220 223 226 227 232 233 225 229 224 227 232 229 229 236 230 229 225 230 233 232 234 236 240 242 241 243 245 245 244 249 255
199 201 191 193 195 196 199 196 209 211 213 214 217 220 219 225 227 232 230 233 219 226 231 233 236 236 235 226 232 236 235 234 237 237 242 242 243 245 249 249 253 243 253
207 201 191 189 193 201 209 204 207 209 211 213 216 220 221 226 222 227 226 230 222 228 234 231 228 238 238 239 245 245 238 240 238 241 248 241 242 246 248 250 252 248 251
209 201 186 187 191 193 202 192 205 208 212 214 220 220 222 217 225 222 225 225 228 233 234 230 237 234 242 248 246 237 237 236 241 242 248 247 245 247 247 253 253 251 250
202 206 201 188 196 199 204 198 199 204 209 214 222 225 221 219 221 214 221 224 223 230 234 243 243 235 249 245 239 234 234 234 236 242 245 249 251 254 254 256 259 261 250
211 207 191 191 194 196 195 189 191 195 204 212 208 206 208 217 221 218 208 210 218 227 234 240 234 237 234 233 228 229 229 226 233 244 241 241 249 251 252 256 256 253 251
217 213 207 196 190 188 199 205 197 195 201 212 203 205 209 206 207 209 205 208 208 210 220 224 219 214 214 222 225 220 222 229 232 233 237 243 244 248 251 254 255 255 251
220 224 216 206 213 198 196 193 196 198 199 204 205 206 202 203 206 209 212 210 201 209 207 207 210 215 219 224 224 227 230 234 237 240 240 241 243 250 253 258 260 255 251
220 224 227 228 220 210 201 193 194 194 199 197 205 207 208 207 210 208 206 213 218 208 210 213 213 213 220 225 231 230 234 238 235 235 242 244 247 252 254 256 258 258 254
216 217 221 231 228 224 225 196 196 197 197 199 203 208 212 209 209 211 209 213 216 224 216 210 213 214 220 223 227 230 232 234 234 239 248 250 246 248 252 257 256 256 256
207 209 211 223 208 206 225 216 207 197 195 199 205 208 210 209 209 213 216 217 216 222 229 225 215 217 224 224 228 232 234 223 234 246 247 241 247 250 251 254 259 263 265
207 205 210 210 219 215 212 224 210 203 196 202 210 211 213 211 214 215 219 219 218 221 226 228 226 221 228 220 225 226 230 231 239 247 240 236 241 248 253 253 257 261 264
215 211 208 217 214 210 205 208 217 216 210 208 204 212 215 218 213 211 213 219 220 223 224 224 227 229 228 234 234 230 232 236 242 241 239 239 240 242 249 256 259 260 261
218 216 211 203 208 207 209 212 213 214 212 212 210 210 211 216 213 213 220 222 222 217 220 222 225 226 228 227 230 237 240 237 236 235 234 236 241 246 250 253 255 259 262
219 218 217 218 209 209 210 212 217 215 211 215 210 208 209 214 215 219 223 226 226 217 217 222 226 230 234 228 229 228 232 238 243 246 246 248 251 252 253 258 260 263 264
219 216 217 220 214 215 219 228 223 217 210 213 212 215 213 214 216 222 225 222 224 219 217 223 229 231 234 236 234 236 238 242 243 244 245 248 251 255 258 262 263 261 264
219 218 216 213 216 219 222 219 216 216 219 213 213 213 215 215 220 226 223 222 224 222 224 228 231 232 231 233 238 242 244 244 244 246 248 251 253 255 258 261 264 267 270
221 218 220 222 220 215 213 213 217 222 224 224 222 214 213 215 216 223 222 224 227 225 230 235 234 230 233 233 239 246 249 248 248 248 249 252 254 258 260 261 264 266 270